Terug naar catalogus

STARLINK-30781

ActiefCommunicatieVLEO
NORAD 58123·PAYLOAD·🇺🇸 United States

Gelanceerd Oct 22, 2023 vanaf Cape Canaveral Space Force Station

Loading…

Volgende Passages (komende 24 uur)

TLE

VersSource: CelesTrak SupGP

Epoch: Sep 15, 2026, 02:05 UTC

1 58123C 23162F   26258.08729167  .00061609  00000+0  22311-2 0  2586
2 58123  43.0015 142.7521 0001730 265.5308 125.5156 15.27552072    18

Volg STARLINK-30781 in realtime met AllMySat

Download on the App Store